Location: Chiroubles
(46.1812°N, 4.6660°E)
Time: 03:09:19
(UTC+00:00)

Tiros 1 - Pass Details

Date: 03 December 2020
Orbit: 630 x 663 km, 48.4° (Epoch: 16 January)

Event Time Altitude Azimuth Distance (km) Brightness Sun altitude
Rises 18:35:53 0° 289° (WNW) 2,992 11.6 -26.8°
Reaches altitude 10° 18:38:17 10° 284° (WNW) 2,074 10.6 -27.2°
Enters shadow 18:42:40 50° 222° (SW) 831 7.8 -28.0°
